Regional Weather Roundup
Issued by NWS

Home | Current Version | Previous Version | Text Only | Print | Product List | Glossary On
Versions: 1 2 3 4 5 6 7 8 9 10 11 12 13 14 15 16 17 18 19 20 21 22 23 24 25 26 27 28 29 30 31 32 33 34 35 36 37 38 39 40 41 42 43 44 45 46 47 48 49 50
000
ASUS44 KBMX 060310
RWRAL

ALABAMA REGIONAL WEATHER ROUNDUP
NATIONAL WEATHER SERVICE BIRMINGHAM AL
1000 PM CDT SUN JUL 05 2015

NOTE: "FAIR" INDICATES FEW OR NO CLOUDS BELOW 12,000 FEET
WITH NO SIGNIFICANT WEATHER AND/OR OBSTRUCTIONS TO VISIBILITY.

THE REMARK "TC" DENOTES TEMPERATURE IN DEGREES CELSIUS.

ALZ001>011-014-016>018-020-060400-
NORTH ALABAMA

CITY           SKY/WX    TMP DP  RH WIND       PRES   REMARKS
MUSCLE SHOALS  CLOUDY    74  70  87 CALM      30.10S
HUNTSVILLE     CLOUDY    76  71  85 CALM      30.10R
DECATUR        CLOUDY    73  71  93 CALM      30.11R
HALEYVILLE     MOCLDY    74  73  96 CALM      30.15R
GADSDEN        CLOUDY    82  68  61 CALM      30.10F
$$

ALZ012-013-022-023-030>036-040>044-060400-
WEST CENTRAL ALABAMA

CITY           SKY/WX    TMP DP  RH WIND       PRES   REMARKS
TUSCALOOSA     CLOUDY    73  69  87 SW6       30.14R
$$

ALZ015-024>027-033>036-040>044-060400-
CENTRAL ALABAMA

CITY           SKY/WX    TMP DP  RH WIND       PRES   REMARKS
BIRMINGHAM     MOCLDY    76  72  87 SW8       30.14R
MONTGOMERY     MOCLDY    72  68  87 S5        30.15R
SHELBY CO ARPT CLOUDY    73  70  90 SW5       30.14R
MAXWELL AFB    NOT AVBL
GREENVILLE     CLOUDY    70  67  90 W5        30.16R
$$

ALZ019-021-028-029-037-038-045>048-060400-
EAST CENTRAL ALABAMA

CITY           SKY/WX    TMP DP  RH WIND       PRES   REMARKS
ANNISTON       CLOUDY    74  70  87 SW3       30.11F
ALEXANDER CITY MOCLDY    72  68  87 SW6       30.15R
AUBURN         CLEAR     72  68  88 SW7       30.16R
$$

ALZ051>064-060400-
SOUTHWEST ALABAMA

CITY           SKY/WX    TMP DP  RH WIND       PRES   REMARKS
MOBILE         CLOUDY    69  68  96 SW5       30.14S
BROOKLEY FIELD CLOUDY    69  68  96 S5        30.15S
EVERGREEN      CLOUDY    70  68  93 CALM      30.18R
$$

ALZ049-050-065>069-060400-
SOUTHEAST ALABAMA

CITY           SKY/WX    TMP DP  RH WIND       PRES   REMARKS
DOTHAN         CLEAR     73  68  84 SW5         N/A
OZARK          NOT AVBL
TROY           PTCLDY    71  68  90 SW5       30.16R
EUFAULA        FAIR      74  71  91 CALM      30.13R
$$


USA.gov is the U.S. government's official web portal to all federal, state and local government web resources and services.